Location: Haieshausen
(51.8387°N, 9.9720°E)
Time: 03:22:54
(UTC+00:00)

Cosmos 614 Rocket - Pass Details

Date: 14 July 2020
Orbit: 732 x 764 km, 74.1° (Epoch: 10 August)

Event Time Altitude Azimuth Distance (km) Brightness Sun altitude
Exits shadow 00:43:21 21° 181° (S) 1,604 5.1 -14.6°
Maximum altitude 00:46:35 58° 109° (ESE) 865 4.2 -14.4°
Drops below altitude 10° 00:51:38 10° 31° (NNE) 2,274 7.8 -14.2°
Sets 00:54:02 0° 28° (NNE) 3,208 9.1 -14.0°
